Regional Weather Roundup
Issued by NWS Burlington, VT

Home | Current Version | Previous Version | Text Only | Print | Product List | Glossary On
Versions: 1 2 3 4 5 6 7 8 9 10 11 12 13 14 15 16 17 18 19 20 21 22 23 24 25 26 27 28 29 30 31 32 33 34 35 36 37 38 39 40 41 42 43 44 45 46 47 48 49 50
000
ASUS41 KBTV 020110
RWRBTV
VERMONT REGIONAL WEATHER ROUNDUP
NATIONAL WEATHER SERVICE BURLINGTON VT
800 PM EST SUN MAR 01 2015

NOTE: "FAIR" INDICATES FEW OR NO CLOUDS BELOW 12,000 FEET WITH NO
SIGNIFICANT WEATHER AND/OR OBSTRUCTIONS TO VISIBILITY.

* THESE REPORTS ARE NOT UNDER NWS QUALITY CONTROL AND/OR DO NOT
  REPORT WEATHER SUCH AS PRECIPITATION AND FOG.

VTZ001>019-020200-
_____VERMONT_____


CITY           SKY/WX    TMP DP  RH WIND       PRES   REMARKS
BURLINGTON     CLOUDY    25  17  72 S14       30.16F WCI  13
MONTPELIER     LGT SNOW  20  17  88 S8        30.16F FOG
MORRISVILLE    LGT SNOW  25  19  78 SW7       30.14F
ST. JOHNSBURY*   N/A     24  18  77 MISG      30.14F
LYNDONVILLE*   LGT SNOW  23  16  75 SE8       30.13F
MIDDLEBURY*    LGT SNOW  24  21  91 CALM      30.18F
RUTLAND*       CLOUDY    21  19  93 E6        30.16F
SPRINGFIELD    LGT SNOW  21  19  92 CALM      30.21F FOG
HIGHGATE*      CLOUDY    25  17  70 S9G18     30.14F
NEWPORT*       LGT SNOW  22  18  84 S6        30.11F
BENNINGTON     LGT SNOW  23  19  85 CALM      30.18F FOG
SUTTON*          N/A     19 N/A N/A MISG        N/A

_____LAKE CHAMPLAIN_____


CITY           SKY/WX    TMP DP  RH WIND       PRES   REMARKS

$$

NYZ007-026>031-035-052-083-020200-
_____NORTHERN NEW YORK_____


CITY           SKY/WX    TMP DP  RH WIND       PRES   REMARKS
PLATTSBURGH    LGT SNOW  25  18  74 S7        30.15F
SARANAC LAKE   LGT SNOW  21  18  88 SW10      30.04F FOG     WCI  10
MASSENA        CLOUDY    25  22  88 SW6       30.16F
OGDENSBURG*    MOCLDY    25  23  93 SW5       30.14F
POTSDAM*       LGT SNOW  25  23  93 SW5       30.13F
WATERTOWN      LGT SNOW  26  22  84 SW7       30.16F FOG
FT DRUM        LGT SNOW  23  22  94 SW8       30.13F FOG
ALBANY         LGT SNOW  24  19  81 S13       30.23F VSB 1   WCI  12
GLENS FALLS    LGT SNOW  23  19  85 S8        30.21F FOG

$$
NHZ002-005-011-020200-
_____NEW HAMPSHIRE_____


CITY           SKY/WX    TMP DP  RH WIND       PRES   REMARKS
LEBANON        LGT SNOW  23  19  85 S5        30.19F FOG
KEENE          CLOUDY    23  19  86 S5        30.23F
MT WASHINGTON  SNOW      10  10 100 W43         N/A  VSB 1/16WCI -15
PLYMOUTH       LGT SNOW  24  24 100 CALM      30.20F
WHITEFIELD     CLOUDY    25  15  66 W3        30.12F

$$

_____REGIONAL QUEBEC LOCATIONS_____


CITY           SKY/WX    TMP DP  RH WIND       PRES   REMARKS
MONTREAL       FLURRIES  23  14  68 N2        30.14F
QUEBEC CITY    CLOUDY    21   7  53 SE3       30.12F
SHERBROOKE     FLURRIES  25  18  74 S8        30.09F

_____REGIONAL ONTARIO LOCATIONS_____


CITY           SKY/WX    TMP DP  RH WIND       PRES   REMARKS
OTTAWA         CLOUDY    21  16  79 S7        30.12F

______KEY______
VSB  - VISIBILITY IN MILES
WCI  - WIND CHILL INDEX
HX   - HEAT INDEX
$$
NNNN



USA.gov is the U.S. government's official web portal to all federal, state and local government web resources and services.